#timestamp,LO_Frequency,Hit 
1505358015.6,286046993.0,N
1505358035.4,286046995.4,N
1505358055.2,286046992.2,N
1505358075.1,286046989.9,N
1505358076.0,286046989.9,N
1505358095.8,286046985.5,P
1505358115.6,286046999.4,N
1505358135.5,286047003.4,N
1505358155.3,286047007.5,N
1505358175.1,286047005.9,N
1505358195.9,286046997.6,N
1505358215.7,286046995.2,N
1505358235.5,286046991.0,N
1505358255.3,286046988.9,N
1505358275.2,286046989.9,N
1505358295.0,286046992.3,N
1505358295.9,286046992.3,N
1505358315.7,286046991.8,N
1505358335.6,286046992.1,N
1505358355.4,286046991.8,N
1505358375.2,286046992.1,N
1505358395.1,286046996.3,N
1505358396.0,286046996.3,N
1505358415.8,286046991.8,N
1505358435.6,286046993.1,N
1505358455.5,286046992.7,N
1505358475.3,286046994.4,N
1505358495.1,286046989.0,N
1505358515.9,286046989.7,N
1505358535.7,286046985.4,N
1505358555.5,286046985.9,N
1505358575.3,286046985.8,N
1505358595.2,286046987.7,N
1505358615.0,286046988.7,N
1505358615.9,286046988.7,N
1505358635.7,286046987.8,N
1505358655.6,286046989.8,N
1505358675.4,286046988.7,N
1505358695.2,286046989.3,N
1505358715.1,286046996.1,N
1505358716.0,286046996.1,N
1505358735.8,286046997.8,N
1505358755.6,286046998.7,N
1505358775.5,286046995.1,N
1505358795.3,286046995.4,N
1505358815.1,286046992.1,N
1505358835.9,286046995.1,N
1505358855.7,286046992.5,N
1505358875.5,286046991.0,N
1505358895.3,286046990.5,N
1505358915.2,286046992.0,N
1505358935.0,286046992.3,N
1505358935.9,286046992.3,N
1505358955.7,286046991.8,N
1505358975.6,286046993.9,N
1505358995.4,286046996.4,N
1505359015.2,286046995.2,N
1505359035.1,286046998.0,N
1505359036.0,286046998.0,N
1505359055.8,286047000.8,N
1505359075.6,286047001.3,N
1505359095.5,286046998.6,N
1505359115.3,286046994.9,N
1505359135.1,286046996.1,N
1505359155.9,286046992.7,N
1505359175.7,286046992.5,N
1505359195.5,286046990.4,N
1505359215.4,286046989.7,P
1505359235.2,286046999.0,N
1505359255.0,286047000.5,N
1505359255.9,286047000.5,N
1505359275.8,286047002.4,N
1505359295.6,286047004.1,N
1505359315.4,286047000.7,N
1505359335.3,286046997.5,N
1505359355.1,286046996.4,N
1505359356.0,286046996.4,N
1505359375.8,286046997.9,N
1505359395.7,286046997.3,N
1505359415.5,286047001.7,N
1505359435.3,286047004.0,N
1505359455.1,286047001.3,N
1505359475.9,286047001.3,N
1505359495.7,286046999.9,N
1505359515.5,286047005.5,N
1505359535.4,286047007.0,N
1505359555.2,286047005.3,N
1505359575.0,286047001.8,N
1505359575.9,286047001.8,N
1505359595.8,286047001.1,N
1505359615.6,286047000.8,N
1505359635.4,286047003.5,N
1505359655.3,286047005.0,N
1505359675.1,286047001.6,N
1505359676.0,286047001.6,N
1505359695.8,286047001.9,N
1505359715.7,286047002.4,N
1505359735.5,286047002.4,N
1505359755.3,286047000.9,N
1505359775.1,286046999.9,N
1505359795.9,286046999.7,N
1505359815.7,286047001.1,N
1505359835.5,286047000.6,N
1505359855.4,286047002.5,N
1505359875.2,286047005.7,N
1505359895.0,286047001.4,N
1505359895.9,286047001.4,N
1505359915.8,286047003.9,N
1505359935.6,286047002.1,N
1505359955.4,286046998.8,N
1505359975.3,286047000.9,N
1505359995.1,286047000.8,N
1505359996.0,286047000.8,N
1505360015.8,286046997.5,N
1505360035.7,286046996.0,N
1505360055.5,286046995.7,N
1505360075.3,286046995.9,N
1505360095.1,286046994.7,N
1505360115.9,286046994.5,N
1505360135.7,286046997.6,N
1505360155.5,286046992.0,N
1505360175.4,286046992.3,N
1505360195.2,286046996.4,N
1505360215.0,286047001.6,N
1505360215.9,286047001.6,N
1505360235.8,286047003.1,N
1505360255.6,286047004.8,N
1505360275.4,286047005.6,N
1505360295.3,286047000.2,N
1505360315.1,286046999.4,N
1505360316.0,286046999.4,N
1505360335.8,286046997.4,N
1505360355.7,286046999.4,N
1505360375.5,286046997.0,N
1505360395.3,286047000.6,N
1505360415.2,286046998.6,N
1505360435.9,286046999.9,N
1505360455.7,286046998.7,N
1505360475.6,286046997.3,N
1505360495.4,286046998.5,N
1505360515.2,286046999.3,N
1505360535.0,286046995.4,N
1505360535.9,286046995.4,N
1505360555.8,286047001.0,N
1505360575.6,286047004.1,N
1505360595.4,286046998.3,N
1505360615.3,286046997.9,N
1505360635.1,286046997.7,N
1505360655.8,286046996.6,N
1505360675.7,286046996.9,N
1505360695.5,286046997.5,N
1505360715.3,286046999.7,N
1505360735.2,286046998.4,N
1505360755.9,286047002.6,N
1505360775.7,286047001.9,N
1505360795.5,286047001.5,N
1505360815.4,286047000.9,N
1505360835.2,286046995.1,N
1505360855.0,286046994.9,N
1505360855.9,286046994.9,N
1505360875.8,286046994.2,N
1505360895.6,286046991.9,P
1505360915.5,286046997.0,N
1505360935.3,286046999.7,N
1505360955.1,286046998.0,N
1505360975.8,286047002.6,N
1505360995.7,286046999.1,N
1505361015.5,286046993.7,N
1505361035.3,286046995.9,N
1505361055.2,286046999.1,N
1505361075.9,286046997.0,N
1505361095.7,286046996.8,N
1505361115.6,286046995.0,N
1505361135.4,286046996.0,N
1505361155.2,286046995.6,N
1505361175.0,286046996.2,N
1505361176.0,286046996.2,N
1505361195.8,286046992.4,P
1505361215.6,286046995.6,N
1505361235.5,286046995.5,N
1505361255.3,286046995.1,N
1505361275.1,286046995.0,P
1505361295.9,286047004.0,P
1505361315.7,286047001.3,N
1505361335.5,286047007.6,N
1505361355.4,286047011.2,N
1505361375.2,286047009.6,N
1505361395.0,286047010.4,N
1505361395.9,286047010.4,N
1505361415.8,286047006.2,N
1505361435.6,286047005.6,N
1505361455.4,286047006.2,N
1505361475.2,286047007.2,N
1505361495.1,286047006.2,N
1505361496.0,286047006.2,N
1505361515.8,286047008.9,N
1505361535.6,286047007.8,N
1505361555.5,286047011.3,N
1505361575.3,286047009.4,N
1505361595.1,286047010.1,N
